Tracking 17150 objects as of 4-August-2015
HD Live streaming from Space Station

IRIDIUM 33 DEB

Track IRIDIUM 33 DEB now!
10-day predictions
IRIDIUM 33 DEB is classified as:


NORAD ID: 34150
Int'l Code: 1997-051ED
Perigee: 696.6 km
Apogee: 797.1 km
Inclination: 86.5 °
Period: 99.6 minutes
Semi major axis: 7117 km
RCS: 0.0227 m2 (small)
Launch date: September 14, 1997
Source: United States (US)

Note: This is SATELLITE DEBRIS
Your satellite tracking list
Your tracking list is empty





NASA's NSSDC Master Catalog

Two Line Element Set (TLE):
1 34150U 97051ED  15216.29574043  .00006433  00000-0  17565-2 0  9996
2 34150 086.4878 252.1662 0070614 049.2592 079.1864 14.45706378337350

Source of the keplerian elements: AFSPC

N2YO: 373